| time (UTC) | temp C | wind direction | speed KPH | gust KPH | rain 1hr cm | rain 24hr cm | rain mn cm | humidity % | barometer mb |
| 20260509224613 | 11 | 196 | 8.0 | 14.5 | 0.00 | 0.97 | 0.97 | 90 | 1006.7 |
| 20260509223713 | 12 | 191 | 8.0 | 16.1 | 0.00 | 0.97 | 0.97 | 89 | 1006.6 |
| 20260509222813 | 12 | 194 | 8.0 | 20.9 | 0.00 | 0.97 | 0.97 | 89 | 1006.5 |
| 20260509221913 | 11 | 186 | 6.4 | 19.3 | 0.00 | 0.97 | 0.97 | 89 | 1006.5 |
| 20260509221013 | 11 | 185 | 8.0 | 16.1 | 0.00 | 0.97 | 0.97 | 90 | 1006.6 |
| 20260509220113 | 11 | 193 | 9.7 | 19.3 | 0.00 | 0.97 | 0.97 | 91 | 1006.6 |
| 20260509215213 | 11 | 188 | 11.3 | 19.3 | 0.00 | 0.97 | 0.97 | 90 | 1006.7 |
| 20260509214313 | 11 | 188 | 11.3 | 22.5 | 0.00 | 0.97 | 0.97 | 90 | 1006.6 |
| 20260509213413 | 11 | 188 | 12.9 | 25.7 | 0.00 | 0.97 | 0.97 | 91 | 1006.8 |
| 20260509212513 | 11 | 183 | 9.7 | 24.1 | 0.00 | 0.97 | 0.97 | 91 | 1006.8 |
| 20260509211613 | 11 | 191 | 9.7 | 17.7 | 0.00 | 0.97 | 0.97 | 93 | 1006.9 |
| 20260509205813 | 10 | 188 | 11.3 | 22.5 | 0.00 | 0.97 | 0.97 | 93 | 1007.1 |
| 20260509204913 | 10 | 190 | 9.7 | 17.7 | 0.00 | 0.97 | 0.97 | 94 | 1007.1 |
| 20260509204013 | 10 | 191 | 9.7 | 19.3 | 0.03 | 0.97 | 0.97 | 94 | 1007.1 |
| 20260509203113 | 10 | 190 | 9.7 | 20.9 | 0.03 | 0.97 | 0.97 | 95 | 1007.2 |
| 20260509202213 | 10 | 190 | 8.0 | 17.7 | 0.03 | 0.97 | 0.97 | 96 | 1007.2 |
| 20260509201313 | 10 | 184 | 8.0 | 17.7 | 0.03 | 0.97 | 0.97 | 97 | 1007.4 |
| 20260509200413 | 10 | 186 | 3.2 | 16.1 | 0.03 | 0.97 | 0.97 | 97 | 1007.4 |
| 20260509195513 | 10 | 177 | 3.2 | 8.0 | 0.05 | 0.97 | 0.97 | 97 | 1007.5 |
| 20260509194613 | 10 | 178 | 3.2 | 11.3 | 0.10 | 0.97 | 0.97 | 97 | 1007.6 |
| 20260509193713 | 10 | 178 | 3.2 | 11.3 | 0.10 | 0.94 | 0.94 | 97 | 1007.8 |
| 20260509192813 | 10 | 178 | 3.2 | 8.0 | 0.13 | 0.94 | 0.94 | 97 | 1007.8 |
| 20260509191913 | 10 | 177 | 4.8 | 11.3 | 0.15 | 0.94 | 0.94 | 97 | 1007.9 |
| 20260509191013 | 10 | 182 | 4.8 | 11.3 | 0.15 | 0.94 | 0.94 | 97 | 1007.9 |
| 20260509190113 | 10 | 190 | 4.8 | 11.3 | 0.15 | 0.91 | 0.91 | 96 | 1007.9 |
| 20260509185213 | 9 | 171 | 3.2 | 11.3 | 0.13 | 0.89 | 0.89 | 96 | 1007.9 |
| 20260509182513 | 9 | 172 | 1.6 | 8.0 | 0.05 | 0.81 | 0.81 | 96 | 1007.9 |
| 20260509181613 | 9 | 176 | 1.6 | 4.8 | 0.03 | 0.79 | 0.79 | 96 | 1007.9 |
| 20260509180713 | 9 | 166 | 3.2 | 6.4 | 0.03 | 0.79 | 0.79 | 96 | 1007.9 |
| 20260509175813 | 9 | 170 | 3.2 | 9.7 | 0.00 | 0.76 | 0.76 | 96 | 1007.9 |
| 20260509174913 | 9 | 175 | 3.2 | 11.3 | 0.00 | 0.76 | 0.76 | 96 | 1007.9 |
| 20260509174013 | 9 | 178 | 4.8 | 11.3 | 0.00 | 0.76 | 0.76 | 96 | 1007.8 |
| 20260509173113 | 9 | 176 | 3.2 | 12.9 | 0.00 | 0.76 | 0.76 | 96 | 1007.9 |
| 20260509172213 | 9 | 161 | 3.2 | 11.3 | 0.00 | 0.76 | 0.76 | 96 | 1007.9 |
| 20260509171313 | 9 | 174 | 4.8 | 11.3 | 0.00 | 0.76 | 0.76 | 96 | 1007.8 |
| 20260509170413 | 9 | 176 | 3.2 | 14.5 | 0.00 | 0.76 | 0.76 | 96 | 1007.8 |
| 20260509165513 | 9 | 170 | 3.2 | 12.9 | 0.03 | 0.76 | 0.76 | 97 | 1007.8 |
| 20260509163713 | 9 | 174 | 4.8 | 11.3 | 0.03 | 0.76 | 0.76 | 97 | 1008.0 |
| 20260509162813 | 8 | 172 | 6.4 | 14.5 | 0.03 | 0.76 | 0.76 | 97 | 1008.0 |
| 20260509161913 | 8 | 173 | 4.8 | 16.1 | 0.05 | 0.76 | 0.76 | 97 | 1008.0 |
| 20260509161013 | 9 | 159 | 3.2 | 11.3 | 0.05 | 0.76 | 0.76 | 97 | 1008.2 |
| 20260509160113 | 9 | 154 | 3.2 | 20.9 | 0.05 | 0.74 | 0.74 | 97 | 1008.2 |
| 20260509155213 | 9 | 157 | 1.6 | 11.3 | 0.05 | 0.74 | 0.74 | 97 | 1008.4 |
| 20260509154313 | 9 | 147 | 1.6 | 6.4 | 0.08 | 0.74 | 0.74 | 98 | 1008.4 |
| 20260509153413 | 8 | 145 | 1.6 | 6.4 | 0.10 | 0.74 | 0.74 | 98 | 1008.6 |
| 20260509152513 | 8 | 133 | 1.6 | 6.4 | 0.13 | 0.74 | 0.74 | 98 | 1008.7 |
| 20260509151613 | 8 | 141 | 1.6 | 6.4 | 0.13 | 0.71 | 0.71 | 98 | 1008.9 |
| 20260509150713 | 8 | 149 | 1.6 | 8.0 | 0.15 | 0.71 | 0.71 | 98 | 1008.9 |
| 20260509145813 | 8 | 140 | 0.0 | 4.8 | 0.13 | 0.69 | 0.69 | 98 | 1009.0 |
| 20260509144913 | 8 | 0 | 0.0 | 6.4 | 0.10 | 0.66 | 0.66 | 98 | 1009.0 |
| 20260509144013 | 8 | 0 | 0.0 | 3.2 | 0.10 | 0.66 | 0.66 | 98 | 1009.2 |
| 20260509143113 | 8 | 0 | 0.0 | 1.6 | 0.08 | 0.64 | 0.64 | 98 | 1009.0 |
| 20260509142213 | 8 | 0 | 0.0 | 1.6 | 0.05 | 0.58 | 0.58 | 98 | 1009.0 |
| 20260509141313 | 8 | 0 | 0.0 | 1.6 | 0.05 | 0.58 | 0.58 | 98 | 1009.0 |
| 20260509140413 | 8 | 0 | 0.0 | 4.8 | 0.03 | 0.56 | 0.56 | 98 | 1009.0 |
| 20260509135513 | 8 | 0 | 0.0 | 0.0 | 0.05 | 0.56 | 0.56 | 98 | 1008.9 |
| 20260509134614 | 8 | 0 | 0.0 | 1.6 | 0.08 | 0.56 | 0.56 | 98 | 1009.0 |
| 20260509133713 | 8 | 0 | 0.0 | 0.0 | 0.08 | 0.56 | 0.56 | 97 | 1009.0 |
| 20260509132813 | 7 | 0 | 0.0 | 1.6 | 0.08 | 0.56 | 0.56 | 97 | 1009.1 |
| 20260509131913 | 7 | 0 | 0.0 | 1.6 | 0.08 | 0.53 | 0.53 | 97 | 1009.2 |
| 20260509131013 | 7 | 0 | 0.0 | 0.0 | 0.10 | 0.53 | 0.53 | 97 | 1009.3 |
| 20260509130113 | 7 | 0 | 0.0 | 1.6 | 0.10 | 0.51 | 0.51 | 97 | 1009.3 |
| 20260509125213 | 7 | 0 | 0.0 | 1.6 | 0.13 | 0.51 | 0.51 | 97 | 1009.4 |
| 20260509124313 | 7 | 0 | 0.0 | 0.0 | 0.10 | 0.48 | 0.48 | 97 | 1009.4 |
| 20260509123413 | 7 | 0 | 0.0 | 1.6 | 0.15 | 0.48 | 0.48 | 97 | 1009.4 |
| 20260509122513 | 7 | 0 | 0.0 | 1.6 | 0.15 | 0.48 | 0.48 | 97 | 1009.5 |
| 20260509121613 | 7 | 0 | 0.0 | 0.0 | 0.15 | 0.46 | 0.46 | 97 | 1009.5 |
| 20260509115813 | 7 | 0 | 0.0 | 3.2 | 0.13 | 0.41 | 0.41 | 97 | 1009.6 |
| 20260509114913 | 7 | 0 | 0.0 | 4.8 | 0.15 | 0.38 | 0.38 | 97 | 1009.6 |
| 20260509113113 | 7 | 0 | 0.0 | 1.6 | 0.15 | 0.33 | 0.33 | 97 | 1009.5 |
| 20260509111313 | 7 | 131 | 1.6 | 6.4 | 0.15 | 0.28 | 0.28 | 96 | 1009.5 |
| 20260509110413 | 7 | 125 | 0.0 | 6.4 | 0.15 | 0.28 | 0.28 | 96 | 1009.6 |
| 20260509103713 | 7 | 173 | 1.6 | 9.7 | 0.08 | 0.18 | 0.18 | 96 | 1009.6 |
| 20260509101913 | 6 | 0 | 0.0 | 1.6 | 0.05 | 0.15 | 0.15 | 96 | 1009.5 |
| 20260509101013 | 6 | 0 | 0.0 | 3.2 | 0.03 | 0.13 | 0.13 | 96 | 1009.3 |
| 20260509100113 | 6 | 0 | 0.0 | 3.2 | 0.03 | 0.13 | 0.13 | 96 | 1009.3 |
| 20260509095213 | 6 | 0 | 0.0 | 3.2 | 0.00 | 0.10 | 0.10 | 95 | 1009.3 |
| 20260509094313 | 6 | 0 | 0.0 | 0.0 | 0.00 | 0.10 | 0.10 | 95 | 1009.4 |
| 20260509092513 | 6 | 0 | 0.0 | 0.0 | 0.00 | 0.10 | 0.10 | 95 | 1009.4 |
| 20260509091613 | 6 | 0 | 0.0 | 1.6 | 0.00 | 0.10 | 0.10 | 95 | 1009.4 |
| 20260509090713 | 6 | 0 | 0.0 | 1.6 | 0.00 | 0.10 | 0.10 | 95 | 1009.5 |
| 20260509085813 | 6 | 0 | 0.0 | 1.6 | 0.00 | 0.10 | 0.10 | 95 | 1009.4 |
| 20260509084913 | 7 | 0 | 0.0 | 1.6 | 0.00 | 0.10 | 0.10 | 95 | 1009.4 |
| 20260509083113 | 7 | 0 | 0.0 | 1.6 | 0.03 | 0.10 | 0.10 | 95 | 1009.6 |
| 20260509082213 | 7 | 0 | 0.0 | 0.0 | 0.03 | 0.10 | 0.10 | 94 | 1009.7 |
| 20260509081313 | 6 | 127 | 0.0 | 1.6 | 0.03 | 0.10 | 0.10 | 94 | 1009.8 |
| 20260509075513 | 6 | 162 | 1.6 | 8.0 | 0.03 | 0.10 | 0.10 | 94 | 1009.9 |
| 20260509074613 | 6 | 0 | 0.0 | 3.2 | 0.00 | 0.08 | 0.08 | 93 | 1009.9 |
| 20260509073713 | 6 | 0 | 0.0 | 1.6 | 0.03 | 0.08 | 0.08 | 93 | 1009.9 |
| 20260509072813 | 6 | 0 | 0.0 | 0.0 | 0.03 | 0.08 | 0.08 | 92 | 1009.9 |
| 20260509071913 | 6 | 0 | 0.0 | 0.0 | 0.05 | 0.08 | 0.08 | 92 | 1009.9 |
| 20260509071013 | 6 | 0 | 0.0 | 0.0 | 0.05 | 0.08 | 0.08 | 92 | 1009.9 |
| 20260509070113 | 6 | 0 | 0.0 | 0.0 | 0.08 | 0.08 | 0.08 | 91 | 1009.8 |
| 20260509065213 | 6 | 0 | 0.0 | 0.0 | 0.08 | 0.08 | 0.08 | 91 | 1009.6 |
| 20260509063413 | 6 | 0 | 0.0 | 0.0 | 0.05 | 0.05 | 0.05 | 90 | 1010.0 |
| 20260509062513 | 6 | 0 | 0.0 | 0.0 | 0.05 | 0.05 | 0.05 | 90 | 1010.1 |
| 20260509060713 | 6 | 0 | 0.0 | 0.0 | 0.00 | 0.00 | 0.00 | 88 | 1010.3 |
| 20260509054013 | 6 | 0 | 0.0 | 0.0 | 0.00 | 0.00 | 0.00 | 86 | 1010.4 |
| 20260509053113 | 6 | 0 | 0.0 | 0.0 | 0.00 | 0.00 | 0.00 | 85 | 1010.5 |
| 20260509051313 | 6 | 0 | 0.0 | 0.0 | 0.00 | 0.00 | 0.00 | 84 | 1010.3 |
| 20260509050413 | 6 | 0 | 0.0 | 1.6 | 0.00 | 0.00 | 0.00 | 84 | 1010.3 |
| 20260509045513 | 6 | 0 | 0.0 | 1.6 | 0.00 | 0.00 | 0.00 | 84 | 1010.4 |
| 20260509043713 | 6 | 0 | 0.0 | 0.0 | 0.00 | 0.00 | 0.00 | 84 | 1010.5 |
| 20260509042813 | 6 | 0 | 0.0 | 0.0 | 0.00 | 0.00 | 0.00 | 83 | 1010.6 |
| 20260509041913 | 6 | 0 | 0.0 | 0.0 | 0.00 | 0.00 | 0.00 | 84 | 1010.7 |
| 20260509041013 | 6 | 0 | 0.0 | 0.0 | 0.00 | 0.00 | 0.00 | 83 | 1010.6 |
| 20260509040113 | 6 | 0 | 0.0 | 0.0 | 0.00 | 0.00 | 0.00 | 83 | 1010.7 |
| 20260509035213 | 6 | 0 | 0.0 | 0.0 | 0.00 | 0.00 | 0.00 | 83 | 1010.8 |
| 20260509034313 | 6 | 0 | 0.0 | 0.0 | 0.00 | 0.00 | 0.00 | 83 | 1010.7 |
| 20260509033413 | 6 | 0 | 0.0 | 0.0 | 0.00 | 0.00 | 0.00 | 84 | 1010.6 |
| 20260509031613 | 5 | 0 | 0.0 | 0.0 | 0.00 | 0.00 | 0.00 | 82 | 1010.6 |
| 20260509030713 | 5 | 0 | 0.0 | 0.0 | 0.00 | 0.00 | 0.00 | 80 | 1010.7 |
| 20260509025813 | 5 | 0 | 0.0 | 0.0 | 0.00 | 0.00 | 0.00 | 79 | 1010.7 |
| 20260509024913 | 6 | 0 | 0.0 | 0.0 | 0.00 | 0.00 | 0.00 | 79 | 1010.8 |
| 20260509024013 | 6 | 0 | 0.0 | 0.0 | 0.00 | 0.00 | 0.00 | 79 | 1010.8 |
| 20260509023113 | 6 | 0 | 0.0 | 0.0 | 0.00 | 0.00 | 0.00 | 79 | 1010.6 |
| 20260509022213 | 6 | 0 | 0.0 | 0.0 | 0.00 | 0.00 | 0.00 | 78 | 1010.7 |
| 20260509021313 | 6 | 0 | 0.0 | 0.0 | 0.00 | 0.00 | 0.00 | 76 | 1010.8 |
| 20260509020413 | 6 | 0 | 0.0 | 0.0 | 0.00 | 0.00 | 0.00 | 74 | 1010.8 |
| 20260509014613 | 6 | 0 | 0.0 | 1.6 | 0.00 | 0.00 | 0.00 | 72 | 1010.8 |
| 20260509013713 | 6 | 0 | 0.0 | 1.6 | 0.00 | 0.00 | 0.00 | 70 | 1010.7 |
| 20260509011013 | 7 | 0 | 0.0 | 1.6 | 0.00 | 0.00 | 0.00 | 67 | 1010.5 |
| 20260509010113 | 7 | 0 | 0.0 | 0.0 | 0.00 | 0.00 | 0.00 | 66 | 1010.4 |
| 20260509003413 | 7 | 0 | 0.0 | 0.0 | 0.00 | 0.00 | 0.00 | 67 | 1010.0 |
| 20260509002513 | 7 | 0 | 0.0 | 0.0 | 0.00 | 0.00 | 0.00 | 65 | 1009.8 |
| 20260509001613 | 7 | 0 | 0.0 | 1.6 | 0.00 | 0.00 | 0.00 | 65 | 1009.8 |
| 20260509000713 | 8 | 0 | 0.0 | 0.0 | 0.00 | 0.00 | 0.00 | 64 | 1009.8 |
| 20260508235813 | 8 | 0 | 0.0 | 0.0 | 0.00 | 0.00 | 0.00 | 63 | 1009.7 |
| 20260508234913 | 8 | 0 | 0.0 | 0.0 | 0.00 | 0.00 | 0.00 | 61 | 1009.6 |
| 20260508234013 | 9 | 0 | 0.0 | 0.0 | 0.00 | 0.00 | 0.00 | 59 | 1009.4 |
| 20260508233113 | 10 | 20 | 0.0 | 3.2 | 0.00 | 0.00 | 0.00 | 58 | 1009.3 |
| 20260508232213 | 10 | 13 | 1.6 | 3.2 | 0.00 | 0.00 | 0.00 | 58 | 1009.1 |
| 20260508230413 | 10 | 349 | 1.6 | 6.4 | 0.00 | 0.00 | 0.00 | 55 | 1009.2 |
| 20260508225513 | 11 | 0 | 0.0 | 6.4 | 0.00 | 0.00 | 0.00 | 55 | 1009.3 |